Time,TemperatureF,DewpointF,PressureIn,WindDirection,WindDirectionDegrees,WindSpeedMPH,WindSpeedGustMPH,Humidity,HourlyPrecipIn,Conditions,Clouds,dailyrainin,SoftwareType,DateUTC
2013-06-05 00:00:00,58.4,58.4,30.04,West,278,0.0,0.0,100,0.00,,,0.00,Wunderground v.1.15,2013-06-05 04:00:00,
2013-06-05 00:02:00,58.3,58.3,30.04,West,277,0.0,2.0,100,0.00,,,0.00,Wunderground v.1.15,2013-06-05 04:02:00,
2013-06-05 00:03:00,58.3,58.3,30.04,West,277,0.0,2.0,100,0.00,,,0.00,Wunderground v.1.15,2013-06-05 04:03:00,
2013-06-05 00:04:00,58.3,58.3,30.04,West,277,0.0,2.0,100,0.00,,,0.00,Wunderground v.1.15,2013-06-05 04:04:00,
2013-06-05 00:06:00,58.1,58.1,30.04,West,275,0.0,2.0,100,0.00,,,0.00,Wunderground v.1.15,2013-06-05 04:06:00,
2013-06-05 00:11:00,58.1,58.1,30.04,West,274,0.0,0.0,100,0.00,,,0.00,Wunderground v.1.15,2013-06-05 04:11:00,
2013-06-05 00:16:00,58.0,58.0,30.04,West,271,0.0,0.0,100,0.00,,,0.00,Wunderground v.1.15,2013-06-05 04:16:00,
2013-06-05 00:22:00,57.8,57.8,30.04,West,268,0.0,0.0,100,0.00,,,0.00,Wunderground v.1.15,2013-06-05 04:22:00,
2013-06-05 00:27:00,57.5,57.5,30.04,WNW,282,0.0,0.0,100,0.00,,,0.00,Wunderground v.1.15,2013-06-05 04:27:00,
2013-06-05 00:33:00,57.2,57.2,30.03,WNW,282,0.0,0.0,100,0.00,,,0.00,Wunderground v.1.15,2013-06-05 04:33:00,
2013-06-05 00:39:00,56.9,56.9,30.03,WNW,282,0.0,0.0,100,0.00,,,0.00,Wunderground v.1.15,2013-06-05 04:39:00,
2013-06-05 00:44:00,57.0,57.0,30.03,WNW,282,0.0,0.0,100,0.00,,,0.00,Wunderground v.1.15,2013-06-05 04:44:00,
2013-06-05 00:50:00,57.3,57.3,30.04,WNW,282,0.0,0.0,100,0.00,,,0.00,Wunderground v.1.15,2013-06-05 04:50:00,
2013-06-05 00:56:00,57.5,57.5,30.04,WNW,282,0.0,0.0,100,0.00,,,0.00,Wunderground v.1.15,2013-06-05 04:56:00,
2013-06-05 01:01:00,57.5,57.5,30.04,WNW,282,0.0,0.0,100,0.00,,,0.00,Wunderground v.1.15,2013-06-05 05:01:00,
2013-06-05 01:07:00,57.5,57.5,30.04,WNW,282,0.0,0.0,100,0.00,,,0.00,Wunderground v.1.15,2013-06-05 05:07:00,
2013-06-05 01:13:00,57.5,57.5,30.04,WNW,282,0.0,0.0,100,0.00,,,0.00,Wunderground v.1.15,2013-06-05 05:13:00,
2013-06-05 01:19:00,57.5,57.5,30.04,WNW,282,0.0,0.0,100,0.00,,,0.00,Wunderground v.1.15,2013-06-05 05:19:00,
2013-06-05 01:24:00,57.3,57.3,30.04,WNW,282,0.0,0.0,100,0.00,,,0.00,Wunderground v.1.15,2013-06-05 05:24:00,
2013-06-05 01:30:00,57.6,55.0,30.03,WNW,282,0.0,0.0,91,0.00,,,0.00,Wunderground v.1.15,2013-06-05 05:30:00,
2013-06-05 01:36:00,58.1,53.9,30.03,WNW,282,0.0,0.0,86,0.00,,,0.00,Wunderground v.1.15,2013-06-05 05:36:00,
2013-06-05 01:41:00,58.4,53.6,30.03,WNW,282,0.0,0.0,84,0.00,,,0.00,Wunderground v.1.15,2013-06-05 05:41:00,
2013-06-05 01:46:00,58.7,52.2,30.03,WNW,282,0.0,1.0,79,0.00,,,0.00,Wunderground v.1.15,2013-06-05 05:46:00,
2013-06-05 01:52:00,59.2,52.3,30.03,WNW,282,0.0,0.0,78,0.00,,,0.00,Wunderground v.1.15,2013-06-05 05:52:00,
2013-06-05 01:58:00,59.5,52.3,30.03,WNW,282,0.0,0.0,77,0.00,,,0.00,Wunderground v.1.15,2013-06-05 05:58:00,
2013-06-05 02:04:00,59.6,52.4,30.03,WNW,282,0.0,0.0,77,0.00,,,0.00,Wunderground v.1.15,2013-06-05 06:04:00,
2013-06-05 02:09:00,59.8,52.6,30.03,WNW,282,0.0,0.0,77,0.00,,,0.00,Wunderground v.1.15,2013-06-05 06:09:00,
2013-06-05 02:15:00,59.8,52.9,30.03,WNW,282,0.0,0.0,78,0.00,,,0.00,Wunderground v.1.15,2013-06-05 06:15:00,
2013-06-05 02:20:00,59.8,52.6,30.03,WNW,282,0.0,0.0,77,0.00,,,0.00,Wunderground v.1.15,2013-06-05 06:20:00,
2013-06-05 02:26:00,59.9,52.7,30.03,WNW,282,0.0,0.0,77,0.00,,,0.00,Wunderground v.1.15,2013-06-05 06:26:00,
2013-06-05 02:31:00,59.9,53.0,30.04,WNW,282,0.0,0.0,78,0.00,,,0.00,Wunderground v.1.15,2013-06-05 06:31:00,
2013-06-05 02:36:00,59.9,52.3,30.04,WNW,282,0.0,0.0,76,0.00,,,0.00,Wunderground v.1.15,2013-06-05 06:36:00,
2013-06-05 02:42:00,60.1,52.1,30.04,WNW,282,0.0,1.0,75,0.00,,,0.00,Wunderground v.1.15,2013-06-05 06:42:00,
2013-06-05 02:47:00,60.1,52.5,30.04,WNW,282,0.0,1.0,76,0.00,,,0.00,Wunderground v.1.15,2013-06-05 06:47:00,
2013-06-05 02:52:00,60.2,52.6,30.04,WNW,292,0.0,1.0,76,0.00,,,0.00,Wunderground v.1.15,2013-06-05 06:52:00,
2013-06-05 02:58:00,60.2,52.6,30.04,WNW,292,0.0,1.0,76,0.00,,,0.00,Wunderground v.1.15,2013-06-05 06:58:00,
2013-06-05 03:04:00,60.2,52.6,30.03,WNW,292,0.0,2.0,76,0.00,,,0.00,Wunderground v.1.15,2013-06-05 07:04:00,
2013-06-05 03:09:00,60.2,53.0,30.03,WNW,292,0.0,2.0,77,0.00,,,0.00,Wunderground v.1.15,2013-06-05 07:09:00,
2013-06-05 03:15:00,60.1,53.9,30.03,WNW,292,0.0,0.0,80,0.00,,,0.00,Wunderground v.1.15,2013-06-05 07:15:00,
2013-06-05 03:20:00,59.9,53.0,30.03,WNW,292,0.0,0.0,78,0.00,,,0.00,Wunderground v.1.15,2013-06-05 07:20:00,
2013-06-05 03:26:00,59.9,53.4,30.03,WNW,292,0.0,0.0,79,0.00,,,0.00,Wunderground v.1.15,2013-06-05 07:26:00,
2013-06-05 03:31:00,59.9,53.0,30.04,WNW,292,0.0,0.0,78,0.00,,,0.00,Wunderground v.1.15,2013-06-05 07:31:00,
2013-06-05 03:37:00,59.9,53.7,30.04,WNW,292,0.0,0.0,80,0.00,,,0.00,Wunderground v.1.15,2013-06-05 07:37:00,
2013-06-05 03:42:00,59.9,54.1,30.04,WNW,292,0.0,0.0,81,0.00,,,0.00,Wunderground v.1.15,2013-06-05 07:42:00,
2013-06-05 03:48:00,59.8,53.3,30.04,WNW,292,0.0,1.0,79,0.00,,,0.00,Wunderground v.1.15,2013-06-05 07:48:00,
2013-06-05 03:53:00,59.6,53.4,30.04,WNW,292,0.0,0.0,80,0.00,,,0.00,Wunderground v.1.15,2013-06-05 07:53:00,
2013-06-05 03:59:00,59.6,53.1,30.04,WNW,292,0.0,3.0,79,0.00,,,0.00,Wunderground v.1.15,2013-06-05 07:59:00,
2013-06-05 04:04:00,59.6,53.8,30.04,WNW,292,0.0,3.0,81,0.00,,,0.00,Wunderground v.1.15,2013-06-05 08:04:00,
2013-06-05 04:10:00,59.5,54.0,30.04,WNW,292,0.0,0.0,82,0.00,,,0.00,Wunderground v.1.15,2013-06-05 08:10:00,
2013-06-05 04:15:00,59.5,54.0,30.04,WNW,292,0.0,0.0,82,0.00,,,0.00,Wunderground v.1.15,2013-06-05 08:15:00,
2013-06-05 04:20:00,59.2,56.3,30.04,WNW,292,0.0,0.0,90,0.00,,,0.00,Wunderground v.1.15,2013-06-05 08:20:00,
2013-06-05 04:26:00,58.4,57.0,30.04,WNW,292,0.0,1.0,95,0.00,,,0.00,Wunderground v.1.15,2013-06-05 08:26:00,
2013-06-05 04:31:00,58.1,56.1,30.03,WNW,294,1.0,2.0,93,0.00,,,0.00,Wunderground v.1.15,2013-06-05 08:31:00,
2013-06-05 04:37:00,58.3,54.8,30.03,ENE,75,2.0,3.0,88,0.00,,,0.00,Wunderground v.1.15,2013-06-05 08:37:00,
2013-06-05 04:42:00,58.4,53.9,30.03,ENE,76,1.0,2.0,85,0.00,,,0.00,Wunderground v.1.15,2013-06-05 08:42:00,
2013-06-05 04:47:00,58.6,54.1,30.02,East,80,1.0,3.0,85,0.00,,,0.00,Wunderground v.1.15,2013-06-05 08:47:00,
2013-06-05 04:54:00,58.7,52.5,30.02,East,90,1.0,2.0,80,0.00,,,0.00,Wunderground v.1.15,2013-06-05 08:54:00,
2013-06-05 04:59:00,58.9,52.7,30.02,ENE,78,1.0,2.0,80,0.00,,,0.00,Wunderground v.1.15,2013-06-05 08:59:00,
2013-06-05 05:05:00,58.9,51.3,30.02,ENE,78,1.0,3.0,76,0.00,,,0.00,Wunderground v.1.15,2013-06-05 09:05:00,
2013-06-05 05:11:00,59.0,51.1,30.02,ENE,78,0.0,0.0,75,0.00,,,0.00,Wunderground v.1.15,2013-06-05 09:11:00,
2013-06-05 05:17:00,59.0,50.4,30.02,ENE,73,1.0,3.0,73,0.00,,,0.00,Wunderground v.1.15,2013-06-05 09:17:00,
2013-06-05 05:23:00,59.0,50.7,30.02,ENE,75,1.0,2.0,74,0.00,,,0.00,Wunderground v.1.15,2013-06-05 09:23:00,
2013-06-05 05:29:00,59.0,49.2,30.02,East,82,1.0,2.0,70,0.00,,,0.00,Wunderground v.1.15,2013-06-05 09:29:00,
2013-06-05 05:34:00,59.0,49.6,30.02,East,83,1.0,1.0,71,0.00,,,0.00,Wunderground v.1.15,2013-06-05 09:34:00,
2013-06-05 05:39:00,59.0,49.2,30.02,East,82,1.0,3.0,70,0.00,,,0.00,Wunderground v.1.15,2013-06-05 09:39:00,
2013-06-05 05:45:00,59.0,48.8,30.03,ENE,75,1.0,2.0,69,0.00,,,0.00,Wunderground v.1.15,2013-06-05 09:45:00,
2013-06-05 05:50:00,58.9,48.7,30.03,East,79,0.0,0.0,69,0.00,,,0.00,Wunderground v.1.15,2013-06-05 09:50:00,
2013-06-05 05:56:00,58.9,48.7,30.03,East,80,1.0,2.0,69,0.00,,,0.00,Wunderground v.1.15,2013-06-05 09:56:00,
2013-06-05 06:02:00,58.9,48.7,30.02,ENE,73,1.0,3.0,69,0.00,,,0.00,Wunderground v.1.15,2013-06-05 10:02:00,
2013-06-05 06:09:00,58.9,48.4,30.02,ENE,73,1.0,3.0,68,0.00,,,0.00,Wunderground v.1.15,2013-06-05 10:09:00,
2013-06-05 06:14:00,58.7,48.6,30.02,ENE,75,0.0,3.0,69,0.00,,,0.00,Wunderground v.1.15,2013-06-05 10:14:00,
2013-06-05 06:19:00,58.7,48.6,30.04,ENE,75,0.0,3.0,69,0.00,,,0.00,Wunderground v.1.15,2013-06-05 10:19:00,
2013-06-05 06:25:00,58.7,48.6,30.04,ENE,75,0.0,0.0,69,0.00,,,0.00,Wunderground v.1.15,2013-06-05 10:25:00,
2013-06-05 06:31:00,58.7,48.6,30.04,ENE,75,0.0,0.0,69,0.00,,,0.00,Wunderground v.1.15,2013-06-05 10:31:00,
2013-06-05 06:36:00,58.6,48.8,30.04,ENE,76,0.0,2.0,70,0.00,,,0.00,Wunderground v.1.15,2013-06-05 10:36:00,
2013-06-05 06:42:00,58.6,48.5,30.04,ENE,72,1.0,3.0,69,0.00,,,0.00,Wunderground v.1.15,2013-06-05 10:42:00,
2013-06-05 06:47:00,58.6,49.6,30.04,ENE,72,1.0,3.0,72,0.00,,,0.00,Wunderground v.1.15,2013-06-05 10:47:00,
2013-06-05 06:52:00,58.4,48.7,30.04,ENE,72,1.0,2.0,70,0.00,,,0.00,Wunderground v.1.15,2013-06-05 10:52:00,
2013-06-05 06:59:00,58.4,49.0,30.04,ENE,72,1.0,2.0,71,0.00,,,0.00,Wunderground v.1.15,2013-06-05 10:59:00,
2013-06-05 07:04:00,58.6,48.8,30.04,ENE,78,1.0,3.0,70,0.00,,,0.00,Wunderground v.1.15,2013-06-05 11:04:00,
2013-06-05 07:09:00,58.6,49.2,30.04,East,80,1.0,4.0,71,0.00,,,0.00,Wunderground v.1.15,2013-06-05 11:09:00,
2013-06-05 07:15:00,58.6,49.2,30.05,East,80,1.0,2.0,71,0.00,,,0.00,Wunderground v.1.15,2013-06-05 11:15:00,
2013-06-05 07:20:00,58.6,50.3,30.05,East,80,1.0,1.0,74,0.00,,,0.00,Wunderground v.1.15,2013-06-05 11:20:00,
2013-06-05 07:26:00,58.6,49.6,30.05,East,80,0.0,1.0,72,0.00,,,0.00,Wunderground v.1.15,2013-06-05 11:26:00,
2013-06-05 07:31:00,58.6,49.6,30.05,East,80,0.0,0.0,72,0.00,,,0.00,Wunderground v.1.15,2013-06-05 11:31:00,
2013-06-05 07:37:00,58.6,50.0,30.05,East,80,0.0,2.0,73,0.00,,,0.00,Wunderground v.1.15,2013-06-05 11:37:00,
2013-06-05 07:42:00,58.6,50.3,30.05,East,80,0.0,0.0,74,0.00,,,0.00,Wunderground v.1.15,2013-06-05 11:42:00,
2013-06-05 07:49:00,58.6,50.3,30.05,East,86,0.0,2.0,74,0.00,,,0.00,Wunderground v.1.15,2013-06-05 11:49:00,
2013-06-05 07:54:00,58.7,50.4,30.05,East,85,1.0,3.0,74,0.00,,,0.00,Wunderground v.1.15,2013-06-05 11:54:00,
2013-06-05 07:59:00,58.9,51.7,30.05,East,83,1.0,3.0,77,0.00,,,0.00,Wunderground v.1.15,2013-06-05 11:59:00,
2013-06-05 08:04:00,58.9,51.3,30.05,ENE,78,1.0,5.0,76,0.00,,,0.00,Wunderground v.1.15,2013-06-05 12:04:00,
2013-06-05 08:09:00,59.0,51.1,30.05,East,83,2.0,5.0,75,0.00,,,0.00,Wunderground v.1.15,2013-06-05 12:09:00,
2013-06-05 08:15:00,59.3,51.7,30.05,ENE,78,2.0,2.0,76,0.00,,,0.00,Wunderground v.1.15,2013-06-05 12:15:00,
2013-06-05 08:20:00,59.6,52.0,30.05,ENE,71,1.0,1.0,76,0.00,,,0.00,Wunderground v.1.15,2013-06-05 12:20:00,
2013-06-05 08:26:00,59.8,51.9,30.05,East,93,1.0,3.0,75,0.00,,,0.00,Wunderground v.1.15,2013-06-05 12:26:00,
2013-06-05 08:32:00,59.8,52.6,30.04,East,92,1.0,2.0,77,0.00,,,0.00,Wunderground v.1.15,2013-06-05 12:32:00,
2013-06-05 08:38:00,59.8,51.9,30.04,East,86,1.0,5.0,75,0.00,,,0.00,Wunderground v.1.15,2013-06-05 12:38:00,
2013-06-05 08:44:00,59.9,53.0,30.04,ENE,76,2.0,2.0,78,0.00,,,0.00,Wunderground v.1.15,2013-06-05 12:44:00,
2013-06-05 08:49:00,59.9,52.0,30.03,ENE,78,1.0,2.0,75,0.00,,,0.00,Wunderground v.1.15,2013-06-05 12:49:00,
2013-06-05 08:54:00,60.1,51.8,30.03,ENE,76,1.0,2.0,74,0.00,,,0.00,Wunderground v.1.15,2013-06-05 12:54:00,
2013-06-05 09:00:00,60.2,51.5,30.03,ENE,75,1.0,2.0,73,0.00,,,0.00,Wunderground v.1.15,2013-06-05 13:00:00,
2013-06-05 09:06:00,60.2,51.9,30.03,ENE,75,1.0,6.0,74,0.00,,,0.00,Wunderground v.1.15,2013-06-05 13:06:00,
2013-06-05 09:12:00,60.2,51.5,30.03,East,80,1.0,2.0,73,0.00,,,0.00,Wunderground v.1.15,2013-06-05 13:12:00,
2013-06-05 09:17:00,60.5,51.8,30.03,ENE,71,1.0,2.0,73,0.00,,,0.00,Wunderground v.1.15,2013-06-05 13:17:00,
2013-06-05 09:22:00,61.3,50.2,30.03,East,88,1.0,3.0,67,0.00,,,0.00,Wunderground v.1.15,2013-06-05 13:22:00,
2013-06-05 09:28:00,62.1,51.4,30.03,East,85,1.0,5.0,68,0.00,,,0.00,Wunderground v.1.15,2013-06-05 13:28:00,
2013-06-05 09:34:00,62.6,50.7,30.02,ENE,76,2.0,5.0,65,0.00,,,0.00,Wunderground v.1.15,2013-06-05 13:34:00,
2013-06-05 09:39:00,63.1,50.7,30.02,East,88,2.0,5.0,64,0.00,,,0.00,Wunderground v.1.15,2013-06-05 13:39:00,
2013-06-05 09:44:00,63.4,52.7,30.01,ENE,71,1.0,2.0,68,0.00,,,0.00,Wunderground v.1.15,2013-06-05 13:44:00,
2013-06-05 09:50:00,63.7,51.7,30.01,East,79,1.0,3.0,65,0.00,,,0.00,Wunderground v.1.15,2013-06-05 13:50:00,
2013-06-05 09:56:00,63.5,50.2,30.01,ENE,68,3.0,7.0,62,0.00,,,0.00,Wunderground v.1.15,2013-06-05 13:56:00,
2013-06-05 10:01:00,63.5,50.2,30.01,ENE,59,2.0,7.0,62,0.00,,,0.00,Wunderground v.1.15,2013-06-05 14:01:00,
2013-06-05 10:07:00,64.2,51.3,30.01,East,82,2.0,7.0,63,0.00,,,0.00,Wunderground v.1.15,2013-06-05 14:07:00,
2013-06-05 10:12:00,64.8,51.9,30.01,East,93,1.0,2.0,63,0.00,,,0.00,Wunderground v.1.15,2013-06-05 14:12:00,
2013-06-05 10:18:00,65.0,51.2,30.00,East,80,1.0,4.0,61,0.00,,,0.00,Wunderground v.1.15,2013-06-05 14:18:00,
2013-06-05 10:23:00,64.7,50.0,30.00,ENE,72,2.0,2.0,59,0.00,,,0.00,Wunderground v.1.15,2013-06-05 14:23:00,
2013-06-05 10:29:00,64.7,52.7,30.00,ENE,73,1.0,2.0,65,0.00,,,0.00,Wunderground v.1.15,2013-06-05 14:29:00,
2013-06-05 10:34:00,64.7,51.4,30.00,ENE,76,1.0,5.0,62,0.00,,,0.00,Wunderground v.1.15,2013-06-05 14:34:00,
2013-06-05 10:39:00,64.7,51.8,30.00,East,80,1.0,5.0,63,0.00,,,0.00,Wunderground v.1.15,2013-06-05 14:39:00,
2013-06-05 10:45:00,64.8,51.5,30.00,East,82,1.0,1.0,62,0.00,,,0.00,Wunderground v.1.15,2013-06-05 14:45:00,
2013-06-05 10:50:00,65.0,51.2,30.00,East,88,0.0,0.0,61,0.00,,,0.00,Wunderground v.1.15,2013-06-05 14:50:00,
2013-06-05 10:56:00,65.3,52.8,30.00,East,82,0.0,2.0,64,0.00,,,0.00,Wunderground v.1.15,2013-06-05 14:56:00,
2013-06-05 11:01:00,65.8,52.4,29.99,East,80,0.0,0.0,62,0.00,,,0.00,Wunderground v.1.15,2013-06-05 15:01:00,
2013-06-05 11:07:00,66.3,51.5,29.99,East,92,1.0,7.0,59,0.00,,,0.00,Wunderground v.1.15,2013-06-05 15:07:00,
2013-06-05 11:12:00,66.8,52.0,29.99,East,92,2.0,2.0,59,0.00,,,0.00,Wunderground v.1.15,2013-06-05 15:12:00,
2013-06-05 11:18:00,67.3,52.0,29.98,NE,56,1.0,2.0,58,0.00,,,0.00,Wunderground v.1.15,2013-06-05 15:18:00,
2013-06-05 11:23:00,67.8,51.5,29.98,East,97,1.0,4.0,56,0.00,,,0.00,Wunderground v.1.15,2013-06-05 15:23:00,
2013-06-05 11:29:00,68.1,50.8,29.98,East,85,1.0,5.0,54,0.00,,,0.00,Wunderground v.1.15,2013-06-05 15:29:00,
2013-06-05 11:34:00,68.1,50.3,29.98,ENE,76,2.0,2.0,53,0.00,,,0.00,Wunderground v.1.15,2013-06-05 15:34:00,
2013-06-05 11:40:00,68.4,51.1,29.98,ENE,78,2.0,3.0,54,0.00,,,0.00,Wunderground v.1.15,2013-06-05 15:40:00,
2013-06-05 11:45:00,68.6,52.8,29.99,ENE,68,1.0,5.0,57,0.00,,,0.00,Wunderground v.1.15,2013-06-05 15:45:00,
2013-06-05 11:51:00,68.9,52.6,29.99,ENE,76,2.0,2.0,56,0.00,,,0.00,Wunderground v.1.15,2013-06-05 15:51:00,
2013-06-05 11:56:00,69.4,52.5,29.99,East,80,2.0,5.0,55,0.00,,,0.00,Wunderground v.1.15,2013-06-05 15:56:00,
2013-06-05 12:02:00,69.6,51.7,29.98,ENE,62,2.0,5.0,53,0.00,,,0.00,Wunderground v.1.15,2013-06-05 16:02:00,
2013-06-05 12:07:00,69.6,54.6,29.98,East,93,1.0,5.0,59,0.00,,,0.00,Wunderground v.1.15,2013-06-05 16:07:00,
2013-06-05 12:12:00,69.6,50.7,29.98,East,92,2.0,3.0,51,0.00,,,0.00,Wunderground v.1.15,2013-06-05 16:12:00,
2013-06-05 12:18:00,69.9,52.5,29.98,ENE,73,2.0,6.0,54,0.00,,,0.00,Wunderground v.1.15,2013-06-05 16:18:00,
2013-06-05 12:23:00,69.9,50.4,29.98,ESE,107,3.0,6.0,50,0.00,,,0.00,Wunderground v.1.15,2013-06-05 16:23:00,
2013-06-05 12:28:00,70.1,50.6,29.98,East,83,3.0,6.0,50,0.00,,,0.00,Wunderground v.1.15,2013-06-05 16:28:00,
2013-06-05 12:34:00,70.3,50.8,29.98,ENE,69,1.0,3.0,50,0.00,,,0.00,Wunderground v.1.15,2013-06-05 16:34:00,
2013-06-05 12:39:00,69.9,49.3,29.98,ENE,78,2.0,7.0,48,0.00,,,0.00,Wunderground v.1.15,2013-06-05 16:39:00,
2013-06-05 12:44:00,70.1,51.7,29.98,SE,140,2.0,2.0,52,0.00,,,0.00,Wunderground v.1.15,2013-06-05 16:44:00,
2013-06-05 12:49:00,70.1,48.9,29.98,East,86,2.0,5.0,47,0.00,,,0.00,Wunderground v.1.15,2013-06-05 16:49:00,
2013-06-05 12:55:00,70.3,51.3,29.98,ENE,75,3.0,5.0,51,0.00,,,0.00,Wunderground v.1.15,2013-06-05 16:55:00,
2013-06-05 13:00:00,70.6,50.0,29.97,East,80,2.0,5.0,48,0.00,,,0.00,Wunderground v.1.15,2013-06-05 17:00:00,
2013-06-05 13:05:00,70.8,52.3,29.97,East,93,2.0,7.0,52,0.00,,,0.00,Wunderground v.1.15,2013-06-05 17:05:00,
2013-06-05 13:11:00,70.8,52.3,29.97,East,82,1.0,1.0,52,0.00,,,0.00,Wunderground v.1.15,2013-06-05 17:11:00,
2013-06-05 13:17:00,71.1,51.0,29.97,East,93,1.0,3.0,49,0.00,,,0.00,Wunderground v.1.15,2013-06-05 17:17:00,
2013-06-05 13:22:00,70.9,49.7,29.97,East,89,2.0,5.0,47,0.00,,,0.00,Wunderground v.1.15,2013-06-05 17:22:00,
2013-06-05 13:28:00,70.9,49.1,29.97,East,80,3.0,6.0,46,0.00,,,0.00,Wunderground v.1.15,2013-06-05 17:28:00,
2013-06-05 13:34:00,70.9,50.2,29.97,East,89,2.0,3.0,48,0.00,,,0.00,Wunderground v.1.15,2013-06-05 17:34:00,
2013-06-05 13:40:00,71.5,50.8,29.97,East,85,1.0,3.0,48,0.00,,,0.00,Wunderground v.1.15,2013-06-05 17:40:00,
2013-06-05 13:46:00,71.1,51.0,29.97,ENE,68,2.0,7.0,49,0.00,,,0.00,Wunderground v.1.15,2013-06-05 17:46:00,
2013-06-05 13:52:00,71.1,49.8,29.97,ENE,66,1.0,2.0,47,0.00,,,0.00,Wunderground v.1.15,2013-06-05 17:52:00,
2013-06-05 13:58:00,70.9,49.7,29.97,East,86,1.0,2.0,47,0.00,,,0.00,Wunderground v.1.15,2013-06-05 17:58:00,
2013-06-05 14:04:00,71.1,50.4,29.97,East,79,0.0,10.0,48,0.00,,,0.00,Wunderground v.1.15,2013-06-05 18:04:00,
2013-06-05 14:09:00,71.3,51.1,29.97,ENE,78,1.0,10.0,49,0.00,,,0.00,Wunderground v.1.15,2013-06-05 18:09:00,
2013-06-05 14:15:00,71.5,51.3,29.96,NNE,18,0.0,1.0,49,0.00,,,0.00,Wunderground v.1.15,2013-06-05 18:15:00,
2013-06-05 14:20:00,71.6,50.9,29.96,NE,55,0.0,1.0,48,0.00,,,0.00,Wunderground v.1.15,2013-06-05 18:20:00,
2013-06-05 14:26:00,72.1,51.3,29.96,NW,319,0.0,2.0,48,0.00,,,0.00,Wunderground v.1.15,2013-06-05 18:26:00,
2013-06-05 14:32:00,72.5,52.2,29.96,NW,319,0.0,0.0,49,0.00,,,0.00,Wunderground v.1.15,2013-06-05 18:32:00,
2013-06-05 14:37:00,72.5,53.3,29.96,NW,315,0.0,0.0,51,0.00,,,0.00,Wunderground v.1.15,2013-06-05 18:37:00,
2013-06-05 14:43:00,72.8,52.5,29.96,NE,42,0.0,0.0,49,0.00,,,0.00,Wunderground v.1.15,2013-06-05 18:43:00,
2013-06-05 14:48:00,73.0,52.7,29.95,NE,42,0.0,0.0,49,0.00,,,0.00,Wunderground v.1.15,2013-06-05 18:48:00,
2013-06-05 14:54:00,73.2,50.6,29.95,WNW,302,1.0,2.0,45,0.00,,,0.00,Wunderground v.1.15,2013-06-05 18:54:00,
2013-06-05 14:59:00,73.5,51.4,29.95,NW,322,1.0,2.0,46,0.00,,,0.00,Wunderground v.1.15,2013-06-05 18:59:00,
2013-06-05 15:05:00,73.9,52.4,29.94,NW,322,0.0,7.0,47,0.00,,,0.00,Wunderground v.1.15,2013-06-05 19:05:00,
2013-06-05 15:11:00,73.9,52.4,29.94,NW,322,0.0,0.0,47,0.00,,,0.00,Wunderground v.1.15,2013-06-05 19:11:00,
2013-06-05 15:17:00,73.9,52.4,29.93,NW,322,0.0,0.0,47,0.00,,,0.00,Wunderground v.1.15,2013-06-05 19:17:00,
2013-06-05 15:22:00,74.4,51.1,29.93,NW,322,0.0,0.0,44,0.00,,,0.00,Wunderground v.1.15,2013-06-05 19:22:00,
2013-06-05 15:28:00,74.7,50.1,29.93,NW,311,0.0,2.0,42,0.00,,,0.00,Wunderground v.1.15,2013-06-05 19:28:00,
2013-06-05 15:34:00,75.1,52.3,29.93,NW,311,0.0,0.0,45,0.00,,,0.00,Wunderground v.1.15,2013-06-05 19:34:00,
2013-06-05 15:40:00,75.1,51.7,29.93,NW,315,0.0,0.0,44,0.00,,,0.00,Wunderground v.1.15,2013-06-05 19:40:00,
2013-06-05 15:46:00,75.1,52.3,29.92,NW,315,0.0,1.0,45,0.00,,,0.00,Wunderground v.1.15,2013-06-05 19:46:00,
2013-06-05 15:51:00,74.9,51.5,29.92,NW,315,0.0,0.0,44,0.00,,,0.00,Wunderground v.1.15,2013-06-05 19:51:00,
2013-06-05 15:56:00,75.1,54.1,29.92,WNW,287,0.0,1.0,48,0.00,,,0.00,Wunderground v.1.15,2013-06-05 19:56:00,
2013-06-05 16:01:00,74.9,54.4,29.91,WNW,287,0.0,5.0,49,0.00,,,0.00,Wunderground v.1.15,2013-06-05 20:01:00,
2013-06-05 16:07:00,73.9,50.0,29.91,East,85,1.0,5.0,43,0.00,,,0.00,Wunderground v.1.15,2013-06-05 20:07:00,
2013-06-05 16:13:00,73.3,50.7,29.91,West,272,0.0,1.0,45,0.00,,,0.00,Wunderground v.1.15,2013-06-05 20:13:00,
2013-06-05 16:19:00,73.2,54.0,29.91,West,272,0.0,1.0,51,0.00,,,0.00,Wunderground v.1.15,2013-06-05 20:19:00,
2013-06-05 16:25:00,73.0,51.0,29.91,West,272,0.0,0.0,46,0.00,,,0.00,Wunderground v.1.15,2013-06-05 20:25:00,
2013-06-05 16:30:00,72.7,51.3,29.91,West,272,0.0,0.0,47,0.00,,,0.00,Wunderground v.1.15,2013-06-05 20:30:00,
2013-06-05 16:35:00,72.5,51.1,29.91,West,272,0.0,0.0,47,0.00,,,0.00,Wunderground v.1.15,2013-06-05 20:35:00,
2013-06-05 16:42:00,72.5,52.8,29.91,West,272,0.0,1.0,50,0.00,,,0.00,Wunderground v.1.15,2013-06-05 20:42:00,
2013-06-05 16:47:00,72.7,51.3,29.92,West,272,0.0,1.0,47,0.00,,,0.00,Wunderground v.1.15,2013-06-05 20:47:00,
2013-06-05 16:53:00,72.7,53.0,29.92,West,272,0.0,0.0,50,0.00,,,0.00,Wunderground v.1.15,2013-06-05 20:53:00,
2013-06-05 16:59:00,72.5,51.1,29.92,WNW,301,0.0,2.0,47,0.00,,,0.00,Wunderground v.1.15,2013-06-05 20:59:00,
2013-06-05 17:05:00,72.3,50.9,29.91,WSW,253,1.0,3.0,47,0.00,,,0.00,Wunderground v.1.15,2013-06-05 21:05:00,
2013-06-05 17:11:00,72.1,51.9,29.91,WSW,254,0.0,1.0,49,0.00,,,0.00,Wunderground v.1.15,2013-06-05 21:11:00,
2013-06-05 17:16:00,72.0,51.8,29.91,NW,312,1.0,6.0,49,0.00,,,0.00,Wunderground v.1.15,2013-06-05 21:16:00,
2013-06-05 17:21:00,71.8,51.6,29.91,NW,312,0.0,1.0,49,0.00,,,0.00,Wunderground v.1.15,2013-06-05 21:21:00,
2013-06-05 17:27:00,71.6,51.4,29.91,NW,312,0.0,2.0,49,0.00,,,0.00,Wunderground v.1.15,2013-06-05 21:27:00,
2013-06-05 17:32:00,71.6,51.4,29.91,NW,312,0.0,0.0,49,0.00,,,0.00,Wunderground v.1.15,2013-06-05 21:32:00,
2013-06-05 17:38:00,71.5,51.3,29.91,WNW,288,0.0,1.0,49,0.00,,,0.00,Wunderground v.1.15,2013-06-05 21:38:00,
2013-06-05 17:43:00,71.3,52.2,29.91,WNW,288,0.0,0.0,51,0.00,,,0.00,Wunderground v.1.15,2013-06-05 21:43:00,
2013-06-05 17:49:00,70.8,50.7,29.90,WNW,288,0.0,0.0,49,0.00,,,0.00,Wunderground v.1.15,2013-06-05 21:49:00,
2013-06-05 17:54:00,70.6,50.5,29.90,West,267,0.0,0.0,49,0.00,,,0.00,Wunderground v.1.15,2013-06-05 21:54:00,
2013-06-05 18:00:00,70.4,50.3,29.90,West,267,0.0,0.0,49,0.00,,,0.00,Wunderground v.1.15,2013-06-05 22:00:00,
2013-06-05 18:05:00,70.4,50.9,29.90,West,267,0.0,4.0,50,0.00,,,0.00,Wunderground v.1.15,2013-06-05 22:05:00,
2013-06-05 18:11:00,70.3,50.2,29.90,West,267,0.0,0.0,49,0.00,,,0.00,Wunderground v.1.15,2013-06-05 22:11:00,
2013-06-05 18:16:00,70.3,50.8,29.90,West,267,0.0,0.0,50,0.00,,,0.00,Wunderground v.1.15,2013-06-05 22:16:00,
2013-06-05 18:22:00,70.1,50.6,29.90,West,265,0.0,0.0,50,0.00,,,0.00,Wunderground v.1.15,2013-06-05 22:22:00,
2013-06-05 18:29:00,69.9,49.3,29.90,West,263,0.0,0.0,48,0.00,,,0.00,Wunderground v.1.15,2013-06-05 22:29:00,
2013-06-05 18:34:00,69.8,49.2,29.89,West,261,0.0,0.0,48,0.00,,,0.00,Wunderground v.1.15,2013-06-05 22:34:00,
2013-06-05 18:40:00,69.6,49.6,29.89,West,261,0.0,0.0,49,0.00,,,0.00,Wunderground v.1.15,2013-06-05 22:40:00,
2013-06-05 18:45:00,69.4,49.9,29.89,West,260,0.0,2.0,50,0.00,,,0.00,Wunderground v.1.15,2013-06-05 22:45:00,
2013-06-05 18:54:00,69.1,50.7,29.89,WSW,256,0.0,0.0,52,0.00,,,0.00,Wunderground v.1.15,2013-06-05 22:54:00,
2013-06-05 18:59:00,68.8,49.9,29.89,WSW,256,0.0,0.0,51,0.00,,,0.00,Wunderground v.1.15,2013-06-05 22:59:00,
2013-06-05 19:04:00,68.6,49.7,29.88,WSW,256,0.0,5.0,51,0.00,,,0.00,Wunderground v.1.15,2013-06-05 23:04:00,
2013-06-05 19:10:00,68.3,51.5,29.88,WSW,256,0.0,0.0,55,0.00,,,0.00,Wunderground v.1.15,2013-06-05 23:10:00,
2013-06-05 19:16:00,68.1,49.8,29.87,WSW,257,0.0,0.0,52,0.00,,,0.00,Wunderground v.1.15,2013-06-05 23:16:00,
2013-06-05 19:22:00,67.9,50.1,29.87,WSW,257,0.0,0.0,53,0.00,,,0.00,Wunderground v.1.15,2013-06-05 23:22:00,
2013-06-05 19:27:00,67.8,49.0,29.87,WSW,257,0.0,0.0,51,0.00,,,0.00,Wunderground v.1.15,2013-06-05 23:27:00,
2013-06-05 19:33:00,67.8,49.0,29.88,WSW,258,0.0,0.0,51,0.00,,,0.00,Wunderground v.1.15,2013-06-05 23:33:00,
2013-06-05 19:39:00,67.6,49.3,29.88,North,7,0.0,0.0,52,0.00,,,0.00,Wunderground v.1.15,2013-06-05 23:39:00,
2013-06-05 19:44:00,67.4,49.2,29.88,North,7,0.0,0.0,52,0.00,,,0.00,Wunderground v.1.15,2013-06-05 23:44:00,
2013-06-05 19:49:00,67.3,49.1,29.88,NNE,18,0.0,0.0,52,0.00,,,0.00,Wunderground v.1.15,2013-06-05 23:49:00,
2013-06-05 19:55:00,67.3,47.5,29.88,NNE,18,0.0,0.0,49,0.00,,,0.00,Wunderground v.1.15,2013-06-05 23:55:00,
2013-06-05 20:00:00,67.3,47.5,29.88,NNE,20,0.0,0.0,49,0.00,,,0.00,Wunderground v.1.15,2013-06-06 00:00:00,
2013-06-05 20:05:00,67.3,46.9,29.88,NNE,18,0.0,6.0,48,0.00,,,0.00,Wunderground v.1.15,2013-06-06 00:05:00,
2013-06-05 20:11:00,67.3,48.0,29.88,NNE,20,0.0,0.0,50,0.00,,,0.00,Wunderground v.1.15,2013-06-06 00:11:00,
2013-06-05 20:17:00,67.1,46.7,29.88,NNE,20,0.0,0.0,48,0.00,,,0.00,Wunderground v.1.15,2013-06-06 00:17:00,
2013-06-05 20:24:00,66.9,49.2,29.88,North,0,0.0,0.0,53,0.00,,,0.00,Wunderground v.1.15,2013-06-06 00:24:00,
2013-06-05 20:29:00,66.6,49.9,29.88,North,0,0.0,0.0,55,0.00,,,0.00,Wunderground v.1.15,2013-06-06 00:29:00,
2013-06-05 20:34:00,66.1,50.4,29.88,North,356,0.0,0.0,57,0.00,,,0.00,Wunderground v.1.15,2013-06-06 00:34:00,
2013-06-05 20:40:00,65.6,51.3,29.88,North,356,0.0,0.0,60,0.00,,,0.00,Wunderground v.1.15,2013-06-06 00:40:00,
2013-06-05 20:45:00,65.0,51.2,29.87,North,356,0.0,1.0,61,0.00,,,0.00,Wunderground v.1.15,2013-06-06 00:45:00,
2013-06-05 20:51:00,64.7,51.8,29.87,West,280,0.0,0.0,63,0.00,,,0.00,Wunderground v.1.15,2013-06-06 00:51:00,
2013-06-05 20:56:00,64.3,51.9,29.87,NW,304,0.0,1.0,64,0.00,,,0.00,Wunderground v.1.15,2013-06-06 00:56:00,
2013-06-05 21:01:00,64.0,51.6,29.88,WSW,248,0.0,5.0,64,0.00,,,0.00,Wunderground v.1.15,2013-06-06 01:01:00,
2013-06-05 21:07:00,63.9,51.9,29.88,NW,308,0.0,5.0,65,0.00,,,0.00,Wunderground v.1.15,2013-06-06 01:07:00,
2013-06-05 21:14:00,63.7,52.1,29.88,NW,306,0.0,0.0,66,0.00,,,0.00,Wunderground v.1.15,2013-06-06 01:14:00,
2013-06-05 21:19:00,63.5,51.1,29.88,North,8,0.0,1.0,64,0.00,,,0.00,Wunderground v.1.15,2013-06-06 01:19:00,
2013-06-05 21:24:00,63.4,51.0,29.88,NW,306,0.0,1.0,64,0.00,,,0.00,Wunderground v.1.15,2013-06-06 01:24:00,
2013-06-05 21:29:00,63.2,51.2,29.88,NW,305,0.0,1.0,65,0.00,,,0.00,Wunderground v.1.15,2013-06-06 01:29:00,
2013-06-05 21:35:00,63.2,51.2,29.88,WNW,302,0.0,0.0,65,0.00,,,0.00,Wunderground v.1.15,2013-06-06 01:35:00,
2013-06-05 21:40:00,63.1,50.7,29.88,WNW,298,0.0,0.0,64,0.00,,,0.00,Wunderground v.1.15,2013-06-06 01:40:00,
2013-06-05 21:47:00,63.1,50.7,29.88,NW,308,0.0,0.0,64,0.00,,,0.00,Wunderground v.1.15,2013-06-06 01:47:00,
2013-06-05 21:54:00,62.9,51.8,29.88,NW,308,0.0,0.0,67,0.00,,,0.00,Wunderground v.1.15,2013-06-06 01:54:00,
2013-06-05 21:59:00,62.7,50.3,29.88,NE,48,0.0,2.0,64,0.00,,,0.00,Wunderground v.1.15,2013-06-06 01:59:00,
2013-06-05 22:04:00,62.7,50.3,29.88,North,11,0.0,5.0,64,0.00,,,0.00,Wunderground v.1.15,2013-06-06 02:04:00,
2013-06-05 22:10:00,62.6,50.7,29.88,North,11,0.0,0.0,65,0.00,,,0.00,Wunderground v.1.15,2013-06-06 02:10:00,
2013-06-05 22:16:00,62.4,50.5,29.88,North,11,0.0,0.0,65,0.00,,,0.00,Wunderground v.1.15,2013-06-06 02:16:00,
2013-06-05 22:22:00,62.4,50.9,29.88,NNW,332,0.0,0.0,66,0.00,,,0.00,Wunderground v.1.15,2013-06-06 02:22:00,
2013-06-05 22:27:00,62.3,50.8,29.88,NNW,330,0.0,0.0,66,0.00,,,0.00,Wunderground v.1.15,2013-06-06 02:27:00,
2013-06-05 22:34:00,62.1,50.6,29.89,North,354,0.0,2.0,66,0.00,,,0.00,Wunderground v.1.15,2013-06-06 02:34:00,
2013-06-05 22:39:00,62.1,51.0,29.89,North,354,0.0,2.0,67,0.00,,,0.00,Wunderground v.1.15,2013-06-06 02:39:00,
2013-06-05 22:45:00,62.1,51.4,29.89,North,354,0.0,0.0,68,0.00,,,0.00,Wunderground v.1.15,2013-06-06 02:45:00,
2013-06-05 22:50:00,62.0,51.3,29.89,North,354,0.0,0.0,68,0.00,,,0.00,Wunderground v.1.15,2013-06-06 02:50:00,
2013-06-05 22:55:00,62.0,51.3,29.89,North,354,0.0,2.0,68,0.00,,,0.00,Wunderground v.1.15,2013-06-06 02:55:00,
2013-06-05 23:01:00,62.0,51.3,29.89,North,354,0.0,3.0,68,0.00,,,0.00,Wunderground v.1.15,2013-06-06 03:01:00,
2013-06-05 23:07:00,61.8,51.1,29.89,North,354,0.0,3.0,68,0.00,,,0.00,Wunderground v.1.15,2013-06-06 03:07:00,
2013-06-05 23:13:00,61.8,51.5,29.89,North,354,0.0,0.0,69,0.00,,,0.00,Wunderground v.1.15,2013-06-06 03:13:00,
2013-06-05 23:19:00,61.8,51.5,29.89,North,354,0.0,0.0,69,0.00,,,0.00,Wunderground v.1.15,2013-06-06 03:19:00,
2013-06-05 23:24:00,61.6,51.3,29.89,North,354,0.0,0.0,69,0.00,,,0.00,Wunderground v.1.15,2013-06-06 03:24:00,
2013-06-05 23:30:00,61.6,51.7,29.88,NNW,328,0.0,2.0,70,0.00,,,0.00,Wunderground v.1.15,2013-06-06 03:30:00,
2013-06-05 23:35:00,61.6,52.1,29.88,NE,35,0.0,1.0,71,0.00,,,0.00,Wunderground v.1.15,2013-06-06 03:35:00,
2013-06-05 23:41:00,61.5,52.8,29.88,NNE,16,0.0,0.0,73,0.00,,,0.00,Wunderground v.1.15,2013-06-06 03:41:00,
2013-06-05 23:46:00,61.5,53.5,29.88,NNE,14,0.0,0.0,75,0.00,,,0.00,Wunderground v.1.15,2013-06-06 03:46:00,
2013-06-05 23:52:00,61.3,52.9,29.88,North,8,0.0,0.0,74,0.00,,,0.00,Wunderground v.1.15,2013-06-06 03:52:00,
2013-06-05 23:57:00,61.2,53.2,29.88,North,0,0.0,0.0,75,0.00,,,0.00,Wunderground v.1.15,2013-06-06 03:57:00,